Location: *
(41.3098°S, 98.7552°E)
Time: 20:06:27
(UTC+00:00)

Daily predictions for brighter satellites

Satellite Brightness Start Highest point End
(mag) Time Altitude Azimuth Time Altitude Azimuth Time Altitude Azimuth
Cosmos 1833 Rocket 3.5 12:05:45 10° NNE 12:10:30 28° ENE 12:14:05 15° SE
USA 215 3.5 12:05:40 17° ENE 12:10:45 56° SSE 12:17:11 10° SW
ADEOS Rocket 3.7 12:13:44 10° SSE 12:20:07 35° E 12:25:53 10° NNE
NOAA 6 4.2 12:17:03 10° SSE 12:22:09 50° E 12:27:10 10° N
CZ-4 R/B 4.3 12:19:21 10° SSE 12:23:29 64° E 12:27:33 10° N
USA 229 DEB 3.7 12:22:00 10° SW 12:28:30 68° WNW 12:34:26 10° NNE
USA 229 3.7 12:22:07 10° SW 12:28:38 69° WNW 12:34:35 10° NNE
Helios 1B rocket 3.2 12:25:33 10° S 12:29:25 50° WSW 12:33:13 10° NNW
Cosmos 2184 Rocket 4.1 12:26:43 10° NNE 12:32:52 55° E 12:39:10 10° SSE
Meteor 2-5 Rocket 4.2 12:27:52 10° NNE 12:33:22 40° E 12:38:51 10° SSE
Cosmos 2181 Rocket 3.9 12:27:11 10° S 12:33:27 79° E 12:39:36 10° N
Meteor 1-31 Rocket 3.8 12:30:06 10° S 12:33:42 46° WSW 12:37:16 10° NNW
Cosmos 1980 Rocket 4.0 12:30:35 10° SSE 12:33:09 15° SE 12:33:09 15° SE
Cosmos 2154 Rocket 4.2 12:28:44 10° NNE 12:34:37 45° E 12:40:37 10° SSE
Cosmos 2251 Rocket 3.6 12:31:09 10° N 12:36:19 51° ENE 12:41:34 10° SSE
Cosmos 1315 Rocket 2.7 12:32:45 10° N 12:36:44 84° E 12:40:48 10° S
ASTRO E2 4.5 12:35:28 10° NW 12:37:51 17° N 12:38:04 17° N
SeaSat 1 3.0 12:33:10 10° SSE 12:38:04 58° WSW 12:42:54 10° NW
SAR-Lupe-2 4.2 12:37:16 10° S 12:40:51 56° WSW 12:44:23 10° NNW
Cosmos 1697 Rocket 3.4 12:40:36 10° S 12:45:39 34° SE 12:45:39 34° SE
Cosmos 44 3.7 12:43:10 10° SW 12:47:53 61° WNW 12:51:10 21° NNE
CBERS 1 LM4 rocket 4.4 12:44:43 10° SSE 12:49:59 69° ENE 12:54:59 10° N
Meteor 1-24 Rocket 3.7 12:48:32 10° N 12:54:18 59° E 12:59:57 10° SSE
Cosmos 2074 Rocket 3.9 12:53:34 10° N 12:59:48 89° W 13:06:08 10° S
CZ-4C R/B 3.7 13:02:04 53° SW 13:02:04 53° SW 13:05:06 10° SSW
BREEZE-M DEB (TANK) 4.4 12:59:20 10° SW 13:00:29 21° SSW 13:00:29 21° SSW
ISS -1.9 12:58:41 10° NW 13:00:17 25° NW 13:00:17 25° NW
Nadezhda 3 Rocket 3.8 13:11:45 10° S 13:18:07 81° E 13:19:14 62° NNE
CZ-4B R/B 3.9 13:16:49 10° S 13:22:08 66° WSW 13:27:18 10° NNW
ATLAS CENTAUR R/B 4.5 13:28:21 10° SSW 13:32:50 26° SSE 13:32:50 26° SSE
Lacrosse 5 3.0 13:32:50 10° SW 13:36:06 37° SSW 13:36:06 37° SSW
Gbstr 26 Del rocket 4.3 13:34:31 10° SW 13:42:41 90° NNW 13:43:04 83° NE
USA 215 3.9 13:53:02 44° NNW 13:53:48 46° NW 14:00:07 10° WSW
Cosmos 1833 Rocket 3.8 13:48:52 10° NW 13:54:11 41° WSW 13:55:55 33° SSW
ADEOS Rocket 4.3 13:59:00 10° S 14:05:39 42° WSW 14:11:38 10° NW
Cosmos 1980 Rocket 4.1 14:12:54 10° SSW 14:14:55 23° SSW 14:14:55 23° SSW
CZ-4C R/B 3.6 20:26:25 49° SSE 20:26:25 49° SSE 20:31:20 10° SSE
CENTAUR R/B 2.9 20:53:00 78° SSE 20:53:00 78° SSE 20:59:29 10° SE
SL-16 R/B 2.8 20:52:40 10° SSE 20:58:27 66° ESE 20:58:27 66° ESE
SL-8 R/B 4.5 21:22:23 50° SE 21:22:23 50° SE 21:26:24 10° E
In-Cosmos 22 4.2 21:24:35 10° S 21:29:59 74° E 21:35:16 10° NNE
Cosmos 1844 4.2 21:40:24 43° SSW 21:40:24 43° SSW 21:45:00 10° SSE
Meteor 2-10 4.2 21:37:21 34° N 21:39:58 83° E 21:45:34 10° SSE
ARIANE 5 R/B 2.4 21:36:00 10° NNE 21:41:11 85° WNW 21:46:21 10° SSW
ARGOS 3.1 21:36:06 10° NNE 21:41:29 85° ESE 21:46:58 10° SSW
CZ-2C R/B 4.4 21:37:51 10° S 21:39:54 20° SSW 21:39:54 20° SSW
Meteor 1-23 Rocket 4.5 21:38:17 10° S 21:44:11 73° E 21:49:59 10° NNE
Cosmos 1633 Rocket 4.3 21:43:49 10° NNE 21:47:59 42° E 21:52:13 10° SSE
ATLAS CENTAUR R/B 3.8 21:51:49 14° SSW 21:51:49 14° SSW 21:52:55 10° S
Cosmos 1269 Rocket 4.1 21:44:50 10° SSW 21:50:14 80° ESE 21:55:34 10° NNE
Lacrosse 5 rocket 2.9 21:52:49 27° N 21:52:49 27° N 21:55:01 10° NNE
Timation 2 Rocket 3.9 21:50:59 54° W 21:51:44 59° WSW 21:57:43 10° SSE
Cosmos 1655 Rocket 4.1 21:46:35 10° SSW 21:52:45 51° W 21:58:46 10° NNW
DELTA 2 R/B (1) 3.6 21:53:16 54° NW 21:54:23 68° N 21:59:57 10° E
Cosmos 220 Rocket 3.9 21:53:48 50° S 21:54:49 81° ESE 21:59:00 10° NNE
Cosmos 1805 3.3 21:55:52 66° NE 21:56:13 73° E 22:00:01 10° SSE
ERS-1 4.4 21:51:28 10° N 21:56:35 70° WNW 22:01:49 10° SSW
GENESIS II 4.1 21:59:12 68° ESE 21:59:12 68° ESE 22:02:26 10° SE
NOSS 3-2 (A) 4.3 21:58:46 36° WNW 22:02:19 55° SW 22:10:00 10° SSE
CZ-2D R/B 3.4 22:00:05 10° NNE 22:04:26 83° WNW 22:08:53 10° SSW
Cosmos 1844 Rocket 3.8 22:05:45 26° SW 22:05:45 26° SW 22:09:50 10° S
NOAA 12 4.0 22:00:01 10° N 22:05:16 73° WNW 22:10:36 10° SSW
NOSS 3-3 (A) 3.9 21:59:20 10° SSW 22:05:45 74° SE 22:11:13 10° NE
SeaSat 1 2.3 22:06:06 10° NNE 22:11:02 82° WNW 22:16:02 10° SSW
PSLV R/B 4.1 22:07:07 10° NNE 22:11:11 57° ESE 22:15:18 10° S
NOSS 3-3 (C) 3.8 22:06:11 10° SSW 22:12:32 79° SE 22:17:57 10° NE
CZ-4C R/B 4.1 22:11:32 23° WSW 22:13:24 25° SW 22:18:58 10° SSE
Cosmos 1140 Rocket 4.3 22:08:22 10° S 22:13:25 50° ESE 22:18:24 10° NE
SJ-12 3.7 22:12:01 10° N 22:16:00 67° W 22:20:02 10° SSW
Cosmos 2285 Rocket 4.1 22:09:33 10° SSW 22:16:05 82° ESE 22:22:29 10° NNE
Cosmos 1862 Rocket 3.6 22:15:02 10° S 22:19:36 86° E 22:24:06 10° N
SL-4 R/B 4.4 22:16:47 10° N 22:19:37 19° NE 22:22:35 10° E
USA 238 DEB 4.1 22:13:21 10° NNW 22:21:18 76° ENE 22:28:48 10° SE
USA 238 4.2 22:13:29 10° NNW 22:21:25 76° ENE 22:28:56 10° SE
SMAP 4.3 22:19:29 10° NE 22:23:55 44° ESE 22:28:25 10° S
SL-08 RB Rocket 3.9 22:22:02 10° N 22:26:25 46° W 22:30:49 10° SSW
EXPRESS MD2 2.6 22:32:16 43° S 22:32:38 49° SSE 22:34:48 10° ENE
Okean 1-7 3.8 22:28:33 10° S 22:32:52 55° E 22:37:04 10° NNE
Cosmos 1470 Rocket 3.7 22:29:07 10° N 22:33:37 83° E 22:38:12 10° S
S3M 4.3 22:28:14 10° N 22:34:34 76° E 22:41:03 10° S
Cosmos 1766 3.5 22:31:51 10° N 22:35:34 67° E 22:39:22 10° SSE
GEOS 3 Rocket 3.6 22:32:54 10° SSE 22:38:08 66° SW 22:43:13 11° NW
Cosmos 1975 3.2 22:35:17 15° NW 22:38:13 39° WSW 22:42:02 10° S
Cosmos 1400 Rocket 2.6 22:36:35 10° SSW 22:40:26 67° W 22:44:11 10° N
SL-16 R/B 3.7 22:37:24 10° SSW 22:41:52 21° WSW 22:43:32 19° W
BREEZE-M R/B 3.5 22:40:58 22° SW 22:42:24 53° SSE 22:46:43 10° ENE
CENTAUR R/B 3.9 22:40:11 18° WSW 22:43:45 25° SW 22:49:12 10° SSE
Okean 2 3.9 22:41:15 10° S 22:45:21 62° E 22:49:25 10° NNE
Cosmos 1340 2.6 22:43:14 10° NNW 22:46:37 47° WSW 22:50:03 10° S
CZ-2D R/B 3.3 22:43:05 10° N 22:46:41 48° W 22:50:20 10° SSW
Cosmos 1666 Rocket 4.2 22:43:13 10° NW 22:47:13 34° WSW 22:51:16 10° S
Cosmos 1833 Rocket 2.7 22:41:42 10° SSW 22:47:27 87° WNW 22:53:06 10° NNE
Milstar 3 Cent rocket 4.4 22:42:39 10° NW 22:49:26 23° N 22:53:57 10° NE
Cosmos 2228 Rocket 3.9 22:45:58 10° SSW 22:50:01 30° W 22:53:59 10° NNW
Cosmos 1707 Rocket 4.2 22:46:50 10° SSW 22:50:51 34° W 22:54:49 10° NNW
SL-14 R/B 4.0 22:51:51 10° SSW 22:55:18 30° W 22:58:44 10° NNW
Cosmos 2315 Rocket 4.2 22:53:51 10° N 23:00:07 79° E 23:06:31 10° S
Cosmos 1386 Rocket 4.5 22:54:42 10° SSW 23:00:40 58° W 23:06:33 10° N
Cosmos 1933 Rocket 3.6 22:56:29 10° N 23:00:51 84° E 23:05:17 10° S
Cosmos 2082 Rocket 3.7 22:56:56 10° S 23:02:12 38° ESE 23:07:25 10° NE
SL-8 R/B 4.2 23:00:17 14° WSW 23:04:04 42° NW 23:08:35 10° NNE
Cosmos 2251 Rocket 3.6 23:00:05 10° SSW 23:05:32 87° WNW 23:10:53 10° NNE
Cosmos 2278 Rocket 2.2 23:00:27 10° NNW 23:06:07 86° WSW 23:11:53 10° SSE
Cosmos 2084 Rocket 4.0 23:08:11 10° NNW 23:12:18 62° ENE 23:16:40 10° SE
Meteor 1-31 Rocket 2.9 23:08:47 10° NNE 23:12:31 78° ESE 23:16:17 10° S
Helios 1B rocket 2.3 23:09:08 10° NNE 23:13:06 84° WNW 23:17:06 10° SSW
SAR-Lupe-2 4.2 23:12:22 10° NNE 23:15:54 61° ESE 23:19:32 10° S
Cosmos 1709 Rocket 4.0 23:09:45 10° S 23:16:04 77° W 23:22:13 10° N
Okean 3 4.3 23:14:04 10° SSW 23:17:44 28° W 23:21:22 10° NNW
BREEZE-M DEB (TANK) 3.5 23:17:38 10° W 23:20:44 33° SSW 23:22:59 10° SE
CZ-2C R/B 2.6 23:17:45 10° N 23:21:20 58° W 23:24:54 10° SSW
Cosmos 1420 Rocket 4.1 23:18:23 10° NNW 23:23:44 81° WSW 23:29:07 10° SSE
[s.n.70599] 2.3 23:22:18 10° WSW 23:24:52 74° NNW 23:27:26 10° ENE
Cosmos 1356 Rocket 4.1 23:22:44 10° SSW 23:26:33 32° W 23:30:16 10° NNW
Cosmos 2056 Rocket 3.6 23:21:53 10° NNW 23:27:16 89° W 23:32:40 10° SSE
Cosmos 1190 Rocket 4.1 23:26:58 10° SSW 23:32:16 87° WNW 23:37:29 10° NNE
